Вернуться в каталог

STARONE C3

АктивенСвязьGEO
NORAD 38991·PAYLOAD·🇧🇷 Brazil

Запущен Nov 10, 2012 с Guiana Space Centre

Loading…

TLE

СвежийSource: Space-Track

Эпоха: Sep 14, 2026, 11:44 UTC

1 38991U 12062A   26257.48903275 -.00000257  00000-0  00000-0 0  9996
2 38991   0.0185  99.1597 0002093  69.4046 285.9516  1.00269997 50654

Отслеживайте STARONE C3 в реальном времени с AllMySat

Download on the App Store